Погода в Манчестере

США     42°59′44″N   71°27′15″W
темп.,
°C
ветер,
м/с
пор.,
м/с
влажн.,
%
обл.,
%
осадки,
мм/ч
давл.,
гПа
погр.,
м
23 мая, пн
пн2323:00+19зюз2897100 2.6 1015257
02:00+16сз51487100 2.6 1015610
05:00+13сз5127124 0.0 1019708
08:00+14сз51162100 0.0 1021676
11:00+17ссз464099 0.0 10221132
14:00+20ссз4532100 0.0 10211562
17:00+19сз4434100 0.0 10221498
20:00+13сз226198 0.0 102329
24 мая, вт
вт2423:00+12с2266100 0.0 102554
02:00+10ссз226696 0.0 102651
05:00+9ссв2567100 0.0 1027160
08:00+12всв3757100 0.0 1028496
11:00+17всв33380 0.0 10281504
14:00+19вюв333752 0.0 10272098
17:00+17вюв4347100 0.0 10261183
20:00+11юв267022 0.0 1028181
25 мая, ср
ср2523:00+8ю11855 0.0 102810
02:00+7зюз0186100 0.0 102810
05:00+9юз117335 0.0 102839
08:00+14ююз126135 0.0 1029338
11:00+20ююз124922 0.0 10271014
14:00+24ююв1339100 0.0 10262561
17:00+21ююз2452100 0.0 1026582
20:00+13ююв2463100 0.0 102771
26 мая, чт
чт2623:00+12ю2681100 0.0 1027145
02:00+10ююз238134 0.0 102763
05:00+9ю2378100 0.0 102761
08:00+14ююз375198 0.0 1027391
11:00+21ююз5838100 0.0 10251414
14:00+23ююз693599 0.0 10221792
17:00+23ююз694199 0.0 10201718
20:00+17ююз51160100 0.0 1020872
27 мая, пт
пт2723:00+15ююз4137593 0.0 1019677
02:00+14юз4158411 0.0 1018684
05:00+15юз3128865 0.0 1016643
08:00+18ююз4128499 0.0 1016743
11:00+23юз5863100 0.0 10131092
14:00+28юз61350100 0.0 10111953
17:00+27юз5135648 0.2 10101811
20:00+21юз51483100 0.9 10101061